Tin City LRRS, AK

4:31 AM AKDT on July 26, 2017 (GMT -0800)
Tin City | | Change Station

Elev 269 ft 65.56 °N, 167.92 °W | Updated 36 minutes ago

Overcast
Overcast
44 °F
Feels Like 34 °F
N
26
Wind Variable Wind from NNE

Today
High -- | Low -- °F
--% Chance of Precip.
Yesterday
High -- | Low -- °F
Precip. -- in
Pressure 30.01 in
Visibility 7.0 miles
Clouds Overcast 200 ft
Windchill 34 °F
Dew Point 43 °F
Humidity 97%
Rainfall 0.02 in
Snow Depth Not available.
5:42 AM 0:50 AM
Waxing Crescent, 13% visible
METAR PATC 261155Z AUTO 02023KT 7SM OVC002 07/06 A3000 RMK AO2 PK WND 02031/1056 SLP161 60004 70005 T00660062 10080 20066 53010
Pressure 30.01 in
Visibility 7.0 miles
Clouds Overcast 200 ft
Windchill 34 °F
Dew Point 43 °F
Humidity 97%
Rainfall 0.02 in
Snow Depth Not available.
5:42 AM 0:50 AM
Waxing Crescent, 13% visible
METAR PATC 261155Z AUTO 02023KT 7SM OVC002 07/06 A3000 RMK AO2 PK WND 02031/1056 SLP161 60004 70005 T00660062 10080 20066 53010

Get Severe Weather Alerts

Thanks for signing up!

Be on the lookout for a verification email in your inbox.

You'll start receiving the daily forecast at 6 AM.

×

10-Day Weather Forecast

Almanac

Astronomy

Jul. 26, 2017 Rise Set
Actual Time
Civil Twilight
Nautical Twilight
Astronomical Twilight
Moon
Length of Visible Light
Length of Day
Tomorrow will be .
, % of the Moon is Illuminated

Today's Extremes

State Highs State Lows

Community

WunderPhotos

Category 6

Welcome to Category 6. This is the collective home for Weather Underground's featured writeups by Dr. Jeff Masters (right), Bob Henson (left), Chris Burt, and other regular contributors.

Nearby

Air Quality

  Air Quality AQ Index Pollutant
Not available.

Snow Depth

Station Depth Elevation

Earthquake Activity

City Distance Mag. Time & Date
Minimum magnitude displayed is 2.5.

Coastal Water Temperatures

Place Temperature

Stations

Nearby Weather Stations

Station Location Temp. Windchill Dew Point Humidity Wind Precip. Elev Updated Type
                   

Watches & Warnings

There are currently no watches in effect.